Regional Weather Roundup
Issued by NWS Cleveland, OH

Home | Current Version | Previous Version | Graphics & Text | Print | Product List | Glossary On
Versions: 1 2 3 4 5 6 7 8 9 10 11 12 13 14 15 16 17 18 19 20 21 22 23 24 25 26 27 28 29 30 31 32 33 34 35 36 37 38 39 40 41 42 43 44 45 46 47 48 49 50
000
ASUS41 KCLE 170010
RWRCLE
OHIO REGIONAL WEATHER ROUNDUP
NATIONAL WEATHER SERVICE WILMINGTON, OH
800 PM EDT TUE SEP 16 2014

NOTE: "FAIR" INDICATES FEW OR NO CLOUDS BELOW 12,000 FEET WITH NO
SIGNIFICANT WEATHER AND/OR OBSTRUCTIONS TO VISIBILITY.

OHZ001>008-015>018-024>027-034-035-043-044-170100-
   NORTHWEST OHIO

CITY           SKY/WX    TMP DP  RH WIND       PRES   REMARKS
DEFIANCE       CLEAR     58  49  72 CALM      30.09F
FINDLAY        CLEAR     60  47  61 SW3       30.09S
TOLEDO EXPRESS CLEAR     55  50  83 S3        30.08F
TOLEDO METCALF CLEAR     61  45  55 SW3       30.09F
LIMA           CLEAR     58  49  72 SW3       30.10S
$$

OHZ009>014-019>023-028>033-038-089-170100-
   NORTHEAST OHIO

CITY           SKY/WX    TMP DP  RH WIND       PRES   REMARKS
CLE-HOPKINS    CLEAR     58  48  69 NW3       30.10F
CLE-LAKEFRONT  CLEAR     60  48  64 W8        30.08S
CUY CO. ARPT   CLEAR     57  50  77 NW8       30.09F
LORAIN-ELYRIA  CLEAR     60  48  64 CALM      30.10S
ASHTABULA      CLEAR     53  49  86 CALM      30.09F
AKRON-CANTON   PTCLDY    58  49  72 N7        30.08S
WOOSTER        PTCLDY    55  50  83 N6        30.09S
MANSFIELD      CLEAR     58  47  66 CALM      30.09F
YOUNGSTOWN     PTCLDY    57  50  77 N7        30.08S
$$

OHZ042-051>053-060>062-070>072-077>081-170100-
  SOUTHWEST OHIO

CITY           SKY/WX    TMP DP  RH WIND       PRES   REMARKS
CINC-COVINGTON CLOUDY    60  50  69 NW5       30.11S
CINC-LUNKEN    CLOUDY    59  55  87 CALM      30.11F
HAMILTON       CLOUDY    58  54  86 CALM      30.12F
DAYTON         CLOUDY    60  50  69 N3        30.12S
WRIGHT-PAT AFB CLOUDY    60  46  61 NW3       30.11S
DAYTON GENERAL CLOUDY    58  52  80 CALM      30.10F
WILMINGTON     CLOUDY    58  47  66 N7        30.11S
$$

OHZ036-037-039>041-045>050-054>059-063>069-073>076-082>088-170100-
  CENTRAL AND SOUTHEAST OHIO

CITY           SKY/WX    TMP DP  RH WIND       PRES   REMARKS
COLUMBUS       PTCLDY    63  49  60 SW7       30.09S
OSU AIRPORT    CLOUDY    59  49  69 NW7       30.09F
BOLTON FIELD   MOCLDY    56  50  81 W3        30.10F
RICKENBACK AFB CLEAR     57  50  78 W6        30.09S
NEWARK         CLEAR     55  50  83 W3        30.08F
MARION         CLEAR     57  48  72 W3        30.10S
LANCASTER      CLEAR     57  50  77 W3        30.09F
ZANESVILLE     CLEAR     60  49  66 NW3       30.08S
NEW PHILLY     CLEAR     58  54  86 CALM      30.08R
$$



USA.gov is the U.S. government's official web portal to all federal, state and local government web resources and services.